Roanoke, VA

8:13 AM EST on December 14, 2019 (GMT -0500)
Roanoke Regional-Woodrum

Weather History for KROA - October, 2019

Change the Weather History Date:

Wednesday, October 16, 2019

  Actual Average Record
Temperature  
Mean Temperature 57 °F 58 °F  
Max Temperature 64 °F 69 °F 85 °F (1930)
Min Temperature 49 °F 46 °F 27 °F (1939)
Degree Days  
Heating Degree Days 8 8  
Month to date heating degree days 37 99  
Since 1 July heating degree days 38 148  
Cooling Degree Days 0 1  
Month to date cooling degree days 73 18  
Year to date cooling degree days 1757 1204  
Growing Degree Days 6 (Base 50)    
Moisture  
Dew Point 47 °F    
Average Humidity 74    
Maximum Humidity 100    
Minimum Humidity 47    
Precipitation  
Precipitation 0.97 in 0.09 in 5.13 in (1936)
Month to date precipitation 1.60 1.46  
Year to date precipitation 33.66 33.48  
Snow  
Snow 0.00 in - - ()
Month to date snowfall 0.0  
Since 1 July snowfall T  
Since 1 September snowfall 0.0  
Snow Depth 0.00 in    
Sea Level Pressure  
Sea Level Pressure 29.80 in    
Wind  
Wind Speed 11 mph (West)    
Max Wind Speed 37 mph    
Max Gust Speed 46 mph    
Visibility 6 miles    
Events Rain    
T = Trace of Precipitation, MM = Missing Value Source: NWS Daily Summary

Daily Weather History Graph

Daily Weather History Graph

Search for Another Location

Airport or City:

Astronomy

Oct. 16, 2019 Rise Set
Actual Time 7:28 AM EDT 6:41 PM EDT
Civil Twilight 7:02 AM EDT 7:08 PM EDT
Nautical Twilight 6:31 AM EDT 7:38 PM EDT
Astronomical Twilight 6:01 AM EDT 8:08 PM EDT
Moon 8:37 PM EDT (10/16) 9:55 AM EDT (10/16)
Length of Visible Light 12h 05m
Length of Day
11h 13m
Waning Gibbous, 93% of the Moon is Illuminated
Oct 16
Waning Gibbous
Oct 21
Last Quarter
Oct 27
New
Nov 4
First Quarter
Nov 12
Full

Hourly Weather History & Observations

Time (EDT) Temp. Dew Point Humidity Pressure Visibility Wind Dir Wind Speed Gust Speed Precip Events Conditions
12:54 AM 54.0 °F 46.0 °F 75% 29.99 in 10.0 mi Calm Calm - N/A   Scattered Clouds
1:54 AM 55.0 °F 46.9 °F 74% 29.96 in 10.0 mi Calm Calm - N/A   Mostly Cloudy
2:54 AM 54.0 °F 48.0 °F 80% 29.94 in 10.0 mi Calm Calm - N/A   Mostly Cloudy
3:54 AM 54.0 °F 46.9 °F 77% 29.90 in 10.0 mi Calm Calm - N/A   Mostly Cloudy
4:54 AM 54.0 °F 48.0 °F 80% 29.89 in 10.0 mi Calm Calm - 0.00 in Rain Light Rain
5:54 AM 52.0 °F 50.0 °F 93% 29.91 in 7.0 mi West 10.4 mph - 0.02 in Rain Light Rain
6:15 AM 52.0 °F 50.0 °F 93% 29.89 in 2.0 mi Calm Calm - 0.07 in Rain Rain
6:49 AM 53.6 °F 51.8 °F 94% 29.88 in 3.0 mi Variable 5.8 mph - 0.14 in Rain Light Rain
6:54 AM 53.1 °F 51.1 °F 93% 29.87 in 3.0 mi Calm Calm - 0.14 in Rain Rain
7:28 AM 53.1 °F 51.1 °F 93% 29.86 in 3.0 mi Calm Calm - 0.05 in Rain Light Rain
7:45 AM 53.1 °F 51.1 °F 93% 29.86 in 3.0 mi Calm Calm - 0.07 in Rain Light Rain
8:15 AM 52.0 °F 50.0 °F 93% 29.84 in 3.0 mi NE 3.5 mph - 0.02 in Rain Rain
8:31 AM 52.0 °F 50.0 °F 93% 29.84 in 2.5 mi Calm Calm - 0.11 in Rain Rain
8:49 AM 51.8 °F 50.0 °F 94% 29.81 in 2.0 mi ESE 6.9 mph - 0.21 in Rain Heavy Rain
8:54 AM 51.1 °F 50.0 °F 96% 29.79 in 2.5 mi ESE 6.9 mph - 0.24 in Rain Light Rain
9:21 AM 51.1 °F 50.0 °F 96% 29.78 in 1.0 mi ESE 6.9 mph - 0.08 in Rain Heavy Rain
9:32 AM 51.1 °F 50.0 °F 96% 29.77 in 2.0 mi SSE 3.5 mph - 0.16 in Rain Rain
9:40 AM 51.1 °F 50.0 °F 96% 29.77 in 2.0 mi South 4.6 mph - 0.18 in Rain Light Rain
9:54 AM 51.1 °F 50.0 °F 96% 29.76 in 2.0 mi WSW 5.8 mph - 0.19 in Rain Light Rain
10:01 AM 51.1 °F 50.0 °F 96% 29.81 in 2.0 mi West 12.7 mph - 0.00 in Rain Light Rain
10:12 AM 51.1 °F 50.0 °F 96% 29.80 in 1.0 mi West 5.8 mph - 0.11 in Rain Heavy Rain
10:21 AM 51.1 °F 50.0 °F 96% 29.81 in 2.0 mi West 6.9 mph - 0.18 in Rain Light Rain
10:41 AM 52.0 °F 51.1 °F 97% 29.79 in 2.0 mi SSE 4.6 mph - 0.24 in Rain Rain
10:54 AM 52.0 °F 51.1 °F 97% 29.78 in 2.0 mi Calm Calm - 0.28 in Rain Light Rain
11:21 AM 54.0 °F 52.0 °F 93% 29.75 in 2.0 mi SSW 3.5 mph - 0.01 in   Overcast
11:28 AM 54.0 °F 51.1 °F 90% 29.74 in 10.0 mi Calm Calm - 0.01 in Rain Light Rain
11:54 AM 55.9 °F 51.1 °F 84% 29.70 in 10.0 mi NNE 3.5 mph - 0.02 in Rain Light Rain
12:54 PM 57.9 °F 53.1 °F 84% 29.69 in 10.0 mi Variable 3.5 mph - 0.00 in   Mostly Cloudy
1:54 PM 60.1 °F 55.0 °F 83% 29.68 in 10.0 mi WSW 5.8 mph 16.1 mph 0.00 in   Overcast
2:54 PM 64.0 °F 50.0 °F 60% 29.66 in 10.0 mi West 10.4 mph 21.9 mph N/A   Mostly Cloudy
3:54 PM 62.1 °F 44.1 °F 52% 29.68 in 10.0 mi WNW 13.8 mph 27.6 mph N/A   Scattered Clouds
4:54 PM 57.9 °F 39.0 °F 49% 29.70 in 10.0 mi WNW 13.8 mph 29.9 mph N/A   Scattered Clouds
5:54 PM 55.9 °F 36.0 °F 47% 29.72 in 10.0 mi WNW 23.0 mph 31.1 mph N/A   Partly Cloudy
6:54 PM 55.0 °F 37.0 °F 51% 29.73 in 10.0 mi NW 23.0 mph 32.2 mph N/A   Mostly Cloudy
7:54 PM 55.0 °F 35.1 °F 47% 29.74 in 10.0 mi WNW 24.2 mph 36.8 mph N/A   Mostly Cloudy
8:54 PM 52.0 °F 36.0 °F 54% 29.78 in 10.0 mi WNW 26.5 mph 36.8 mph 0.00 in   Overcast
9:54 PM 50.0 °F 34.0 °F 54% 29.81 in 10.0 mi WNW 27.6 mph 39.1 mph 0.00 in   Mostly Cloudy
10:54 PM 48.9 °F 34.0 °F 56% 29.81 in 10.0 mi WNW 21.9 mph 33.4 mph N/A   Mostly Cloudy
11:54 PM 50.0 °F 35.1 °F 57% 29.81 in 10.0 mi WNW 21.9 mph 38.0 mph N/A   Overcast